SCOUT X-4 R/B, 809

Orbit data source: Space-Track

SCOUT X-4 R/B, 809 is space debris in LEO originally from a launch on Thu, 04 Jun 1964 UTC launched from the Air Force Western Test Range (AFWTR). Debris objects in space refer to the collection of defunct objects orbiting the Earth. Examples of debris include non-operational satellites, rocket bodies, and fragments generated from explosions, collisions, or faulty payload assembly.

Loading next visibility...
Identifier
809, 1964-026D
Orbit
LEO
Country
Flag of USUS
Related business
Manufacturer
ABL
Mission
Spacecraft
Bus & Motor
ALTAIR, Unknown motor
Mass
33 kg wet, 33 kg dry
Launch date (UTC)
1964-06-04 (62 years ago)
Launch vehicle
Unknown
Launch site
Air Force Western Test Range (AFWTR)
Object type
Payload
Rocket body
Debris
Shape & HBR
Unknown
Radar Cross Section
Medium (>0.1 m² and <1 m²)

Expand to show TLE details & history
Last TLE update: 14 hours ago

TLE from 14 hours ago
0 SCOUT X-4 R/B
1   809U 64026D   26037.33446778  .00000289  00000-0  15474-3 0  9998
2   809  90.4480 171.3001 0041931 120.9241 239.6076 14.10727644159693
Epoch: 2026-02-06T08:01Z
TLE epoch observation values (Epoch: 2026-02-06T08:01:38.016Z)
Latitude
-0.00005°
Longitude
-85.58213°
Altitude
875.37 km
Speed
7.407 km/s
True Right ascension
11h 25m 12s
True Declination
0° 00' 00"
Sunlit
Object was in full shadow at epoch
Visualization orbit readout
Latitude
Unknown
Longitude
Unknown
Altitude
Unknown
Speed
Unknown
Apparent Right ascension
Unknown
Apparent Declination
Unknown
Sunlit
N/A
Visualization observer readout
Local Sidereal Time
23:51:45
Azimuth
Unknown
Elevation
Unknown
Doppler factor
Unknown
Orbital elements
Apogee altitude
884.169 km
Perigee altitude
823.521 km
Semi-major axis
7,231.982 km
Eccentricity
0.00419
Inclination
90.448°
RAAN
171.3001°
Arg. of periapsis
120.9241°
True anomaly
239.19424°
Mean anomaly
239.6076°
Eccentric anomaly
239.40081°
Mean motion
3.52904 °/min
Orbital period
102.01 mins
BSTAR
0.00015474
Loading maneuver chart data...
Computing Atmospheric mass density...
Loading historical data...
Loading historical data...
Loading historical data...
Loading historical data...
Loading historical data...
Loading historical data...
Loading historical data...

Documentation

Showing up to 5 results
|